Springfield, MO (65801)

1:30 AM CDT on September 01, 2015 (GMT -0500)
Stone Meadow | | Change Station
CLOSE
Current Station
Personal Weather Station
Location: Springfield, MO
Elevation: 1253 ft
Nearby Weather Stations

Elev 1253 ft 37.12 °N, 93.31 °W | Updated 52 seconds ago

Clear
Clear
72.7 °F
Feels Like 70 °F
N
0.0
Wind Variable Wind from SSE
Gusts 0.0 mph

Today
High -- | Low -- °F
--% Chance of Precip.
Yesterday
High -- | Low -- °F
Precip. -- in
6:43 AM 7:42 PM
Waning Gibbous, 91% visible
Pressure 30.03 in
Visibility 10.0 miles
Clouds Clear
Heat Index 70 °F
Dew Point 70 °F
Humidity 90%
Rainfall 0.00 in
Snow Depth Not available.
UV 0.0 out of 12
Pollen 10.60 out of 12
Air Quality Not available.
Flu Activity Not available.
METAR KSGF 010552Z 16007KT 10SM CLR 23/20 A3007 RMK AO2 SLP168 T02280200 10283 20228 403170217 51006
Pressure 30.03 in
Visibility 10.0 miles
Clouds Clear
Heat Index 70 °F
Dew Point 70 °F
Humidity 90%
Rainfall 0.00 in
Snow Depth Not available.
UV 0.0 out of 12
Pollen 10.60 out of 12
Air Quality Not available.
Flu Activity Not available.
METAR KSGF 010552Z 16007KT 10SM CLR 23/20 A3007 RMK AO2 SLP168 T02280200 10283 20228 403170217 51006

10-Day Weather Forecast

×

Almanac

Astronomy

Sep. 01, 2015 Rise Set
Actual Time
Civil Twilight
Nautical Twilight
Astronomical Twilight
Moon
Length of Visible Light
Length of Day
Tomorrow will be .
, % of the Moon is Illuminated

Today's Extremes

State Highs State Lows

Community

WunderPhotos

Upload Photos

1,851,488 photos uploaded!

WunderBlogs® & News

Nearby

Air Quality

  Air Quality AQ Index Pollutant
Not available.

Snow Depth

Station Depth Elevation

Earthquake Activity

City Distance Mag. Time & Date
Minimum magnitude displayed is 2.5.

Coastal Water Temperatures

Place Temperature

Stations

Nearby Weather Stations

Station Location Temp. Windchill Dew Point Humidity Wind Precip. Elev Updated Type